Leadville, CO

1:56 AM MDT on June 25, 2017 (GMT -0600)
Lake County

Weather History for KLXV - April, 2013

Change the Weather History Date:

Wednesday, April 10, 2013

  Actual Average Record
Temperature  
Mean Temperature 15 °F -  
Max Temperature 26 °F 42 °F 59 °F (2012)
Min Temperature 4 °F 17 °F -3 °F (1989)
Degree Days  
Heating Degree Days 50 36  
Month to date heating degree days 361 367  
Since 1 July heating degree days 9213 9350  
Cooling Degree Days 0 0  
Month to date cooling degree days 0 0  
Year to date cooling degree days 0 0  
Moisture  
Dew Point 7 °F    
Average Humidity 69    
Maximum Humidity 88    
Minimum Humidity 50    
Precipitation  
Precipitation 0.02 in 0.04 in 0.22 in (2004)
Month to date precipitation 0.68 0.34  
Year to date precipitation 3.81 2.60  
Sea Level Pressure  
Sea Level Pressure 29.88 in    
Wind  
Wind Speed 12 mph (NNW)    
Max Wind Speed 22 mph    
Max Gust Speed 29 mph    
Visibility 8 miles    
Events Snow    
T = Trace of Precipitation, MM = Missing Value Source: NWS Daily Summary

Daily Weather History Graph

Daily Weather History Graph

Search for Another Location

Airport or City:

Trip Planner

Search our weather history database for the weather conditions in past years. The results will help you decide how hot, cold, wet, or windy it might be!

Date:

Astronomy

Apr. 10, 2013 Rise Set
Actual Time 6:35 AM MDT 7:38 PM MDT
Civil Twilight 6:07 AM MDT 8:05 PM MDT
Nautical Twilight 5:35 AM MDT 8:38 PM MDT
Astronomical Twilight 5:01 AM MDT 9:12 PM MDT
Moon 6:33 AM MDT (4/10) 8:16 PM MDT (4/10)
Length of Visible Light 13h 57m
Length of Day
13h 02m
New Moon, 0% of the Moon is Illuminated
Apr 10
New Moon
Apr 18
First Quarter
Apr 25
Full
May 2
Last Quarter
May 9
New

Hourly Weather History & Observations

Time (MDT) Temp. Windchill Dew Point Humidity Pressure Visibility Wind Dir Wind Speed Gust Speed Precip Events Conditions
12:33 AM 8.6 °F - 3.2 °F 79% 29.83 in 9.0 mi Calm Calm - 0.00 in   Mostly Cloudy
12:48 AM 6.8 °F - 3.2 °F 85% 29.82 in 10.0 mi Calm Calm - 0.00 in   Scattered Clouds
12:53 AM 7.0 °F - 3.9 °F 87% 29.89 in 10.0 mi Calm Calm - 0.00 in   Partly Cloudy
1:53 AM 5.0 °F -6.9 °F 1.0 °F 84% 29.88 in 10.0 mi NNE 6.9 mph - N/A   Clear
2:53 AM 6.1 °F -9.5 °F 1.9 °F 83% 29.85 in 10.0 mi North 11.5 mph - N/A   Clear
3:53 AM 8.1 °F -7.7 °F 3.0 °F 80% 29.85 in 10.0 mi NNW 12.7 mph - N/A   Clear
4:53 AM 9.0 °F -3.2 °F 3.9 °F 80% 29.87 in 10.0 mi North 8.1 mph - N/A   Overcast
5:53 AM 10.0 °F -4.5 °F 5.0 °F 80% 29.88 in 10.0 mi NNW 11.5 mph - N/A   Overcast
6:23 AM 8.6 °F -4.7 °F 3.2 °F 79% 29.85 in 10.0 mi North 9.2 mph - N/A   Overcast
6:33 AM 8.6 °F -3.7 °F 3.2 °F 79% 29.85 in 10.0 mi NNW 8.1 mph - N/A   Overcast
6:53 AM 8.1 °F -0.5 °F 3.0 °F 80% 29.91 in 10.0 mi North 4.6 mph - N/A   Overcast
7:53 AM 10.0 °F -5.2 °F 3.0 °F 73% 29.92 in 10.0 mi NNW 12.7 mph - N/A   Mostly Cloudy
8:53 AM 14.0 °F -0.8 °F 3.0 °F 62% 29.91 in 10.0 mi North 13.8 mph 21.9 mph N/A   Clear
9:53 AM 16.0 °F 0.6 °F 3.0 °F 57% 29.90 in 10.0 mi NNE 16.1 mph 23.0 mph N/A   Clear
10:53 AM 18.0 °F 2.2 °F 5.0 °F 57% 29.92 in 10.0 mi North 18.4 mph - N/A   Mostly Cloudy
11:53 AM 19.0 °F 4.0 °F 6.1 °F 57% 29.89 in 10.0 mi North 17.3 mph 24.2 mph N/A   Overcast
12:53 PM 24.1 °F 13.7 °F 9.0 °F 53% 29.86 in 10.0 mi North 10.4 mph 24.2 mph N/A   Mostly Cloudy
1:53 PM 24.1 °F 13.7 °F 10.0 °F 55% 29.87 in 10.0 mi NNW 10.4 mph 19.6 mph N/A   Overcast
2:53 PM 23.0 °F 17.0 °F 12.0 °F 63% 29.86 in 7.0 mi Variable 4.6 mph - 0.00 in Snow Light Snow
3:13 PM 24.8 °F 13.4 °F 12.2 °F 59% 29.85 in 10.0 mi NW 12.7 mph 19.6 mph 0.00 in   Overcast
3:39 PM 26.6 °F 16.8 °F 12.2 °F 55% 29.83 in 10.0 mi NW 10.4 mph 18.4 mph 0.00 in   Overcast
3:53 PM 26.1 °F 13.1 °F 12.0 °F 55% 29.82 in 10.0 mi NNW 17.3 mph 23.0 mph 0.00 in   Overcast
4:53 PM 23.0 °F 11.1 °F 12.0 °F 63% 29.83 in 10.0 mi NNW 12.7 mph 23.0 mph N/A   Overcast
5:48 PM 21.2 °F 9.5 °F 10.4 °F 63% 29.84 in 10.0 mi NW 11.5 mph - N/A   Overcast
5:53 PM 21.0 °F 8.6 °F 10.9 °F 65% 29.85 in 10.0 mi NNW 12.7 mph 17.3 mph N/A   Overcast
6:53 PM 21.0 °F 8.1 °F 10.9 °F 65% 29.88 in 10.0 mi WNW 13.8 mph 19.6 mph N/A   Overcast
7:53 PM 18.0 °F 4.8 °F 10.9 °F 74% 29.93 in 5.0 mi North 12.7 mph 18.4 mph 0.00 in Snow Light Snow
8:18 PM 17.6 °F 5.7 °F 12.2 °F 79% 29.90 in 1.8 mi NNW 10.4 mph - 0.00 in Snow Light Snow
8:37 PM 15.8 °F 5.1 °F 12.2 °F 86% 29.91 in 1.0 mi NW 8.1 mph - 0.01 in Snow Light Snow
8:46 PM 15.8 °F 3.4 °F 12.2 °F 86% 29.91 in 0.8 mi NW 10.4 mph - 0.01 in Snow Light Snow
8:53 PM 16.0 °F 4.4 °F 12.9 °F 88% 29.93 in 1.0 mi NNW 9.2 mph - 0.01 in Snow Light Snow
9:13 PM 15.8 °F 0.9 °F 10.4 °F 79% 29.92 in 2.0 mi NW 15.0 mph - 0.00 in Snow Light Snow
9:37 PM 15.8 °F 2.7 °F 10.4 °F 79% 29.93 in 3.0 mi NNW 11.5 mph - 0.01 in Snow Light Snow
9:53 PM 15.1 °F 3.3 °F 10.0 °F 80% 29.94 in 8.0 mi NW 9.2 mph - 0.01 in Snow Light Snow
10:38 PM 10.4 °F -1.5 °F 6.8 °F 85% 29.92 in 10.0 mi WNW 8.1 mph - 0.00 in   Scattered Clouds
10:53 PM 10.0 °F -4.5 °F 5.0 °F 80% 29.95 in 10.0 mi WNW 11.5 mph - 0.00 in   Clear
11:53 PM 12.0 °F 0.5 °F 6.1 °F 77% 29.90 in 10.0 mi NW 8.1 mph - N/A   Overcast